Time,TemperatureF,DewpointF,PressureIn,WindDirection,WindDirectionDegrees,WindSpeedMPH,WindSpeedGustMPH,Humidity,HourlyPrecipIn,Conditions,Clouds,dailyrainin,SoftwareType,DateUTC
2013-05-19 00:00:00,50.5,48.0,29.77,West,274,0.0,0.0,91,0.00,SCT,,0.00,WeatherDisplay:10.37,2013-05-18 23:00:00,
2013-05-19 00:10:00,50.2,47.7,29.77,West,274,0.0,0.0,91,0.00,SCT,,0.00,WeatherDisplay:10.37,2013-05-18 23:10:00,
2013-05-19 00:18:00,50.0,47.8,29.77,West,274,0.0,0.0,92,0.00,SCT,,0.00,WeatherDisplay:10.37,2013-05-18 23:18:00,
2013-05-19 00:30:00,49.5,47.2,29.77,West,274,0.0,0.0,92,0.00,SCT,,0.00,WeatherDisplay:10.37,2013-05-18 23:30:00,
2013-05-19 00:40:00,49.3,47.1,29.77,West,274,0.0,0.0,92,0.00,SCT,,0.00,WeatherDisplay:10.37,2013-05-18 23:40:00,
2013-05-19 00:50:00,49.1,46.9,29.77,West,274,0.0,0.0,92,0.00,SCT,,0.00,WeatherDisplay:10.37,2013-05-18 23:50:00,
2013-05-19 01:00:00,48.7,46.8,29.77,West,274,0.0,0.0,93,0.00,SCT,,0.00,WeatherDisplay:10.37,2013-05-19 00:00:00,
2013-05-19 01:10:00,48.6,46.6,29.77,West,274,0.0,0.0,93,0.00,SCT,,0.00,WeatherDisplay:10.37,2013-05-19 00:10:00,
2013-05-19 01:20:00,48.4,46.4,29.77,West,274,0.0,0.0,93,0.00,SCT,,0.00,WeatherDisplay:10.37,2013-05-19 00:20:00,
2013-05-19 01:30:00,48.2,46.3,29.77,West,274,0.0,0.0,93,0.00,SCT,,0.00,WeatherDisplay:10.37,2013-05-19 00:30:00,
2013-05-19 01:40:00,47.7,45.7,29.77,West,274,0.0,0.0,93,0.00,SCT,,0.00,WeatherDisplay:10.37,2013-05-19 00:40:00,
2013-05-19 01:50:00,47.3,45.4,29.80,West,274,0.0,0.0,93,0.00,SCT,,0.00,WeatherDisplay:10.37,2013-05-19 00:50:00,
2013-05-19 02:00:00,46.9,45.3,29.80,West,274,0.0,0.0,94,0.00,SCT,,0.00,WeatherDisplay:10.37,2013-05-19 01:00:00,
2013-05-19 02:10:00,46.8,45.1,29.80,West,274,0.0,0.0,94,0.00,SCT,,0.00,WeatherDisplay:10.37,2013-05-19 01:10:00,
2013-05-19 02:20:00,46.4,44.8,29.80,West,274,0.0,0.0,94,0.00,SCT,,0.00,WeatherDisplay:10.37,2013-05-19 01:20:00,
2013-05-19 02:30:00,46.4,44.8,29.80,West,274,0.0,0.0,94,0.00,SCT,,0.00,WeatherDisplay:10.37,2013-05-19 01:30:00,
2013-05-19 02:40:00,46.2,44.6,29.80,West,274,0.0,0.0,94,0.00,SCT,,0.00,WeatherDisplay:10.37,2013-05-19 01:40:00,
2013-05-19 02:50:00,46.0,44.4,29.80,West,274,0.0,0.0,94,0.00,SCT,,0.00,WeatherDisplay:10.37,2013-05-19 01:50:00,
2013-05-19 03:00:00,45.7,44.1,29.80,West,274,0.0,0.0,94,0.00,SCT,,0.00,WeatherDisplay:10.37,2013-05-19 02:00:00,
2013-05-19 03:10:00,45.5,44.2,29.80,West,274,0.0,0.0,95,0.00,SCT,,0.00,WeatherDisplay:10.37,2013-05-19 02:10:00,
2013-05-19 03:20:00,45.3,44.0,29.80,West,274,0.0,0.0,95,0.00,SCT,,0.00,WeatherDisplay:10.37,2013-05-19 02:20:00,
2013-05-19 03:30:00,45.1,43.8,29.80,West,273,0.0,0.0,95,0.00,SCT,,0.00,WeatherDisplay:10.37,2013-05-19 02:30:00,
2013-05-19 03:40:00,44.6,43.3,29.80,West,274,0.0,0.0,95,0.00,SCT,,0.00,WeatherDisplay:10.37,2013-05-19 02:40:00,
2013-05-19 03:50:00,43.7,42.4,29.80,West,274,3.0,5.0,95,0.00,SCT,,0.00,WeatherDisplay:10.37,2013-05-19 02:50:00,
2013-05-19 04:00:00,43.5,42.2,29.80,West,274,0.0,4.0,95,0.00,SCT,,0.00,WeatherDisplay:10.37,2013-05-19 03:00:00,
2013-05-19 04:10:00,43.5,42.2,29.80,West,274,0.0,0.0,95,0.00,SCT,,0.00,WeatherDisplay:10.37,2013-05-19 03:10:00,
2013-05-19 04:20:00,43.7,42.4,29.80,West,274,0.0,0.0,95,0.00,SCT,,0.00,WeatherDisplay:10.37,2013-05-19 03:20:00,
2013-05-19 04:30:00,43.5,42.2,29.80,West,274,0.0,4.0,95,0.00,SCT,,0.00,WeatherDisplay:10.37,2013-05-19 03:30:00,
2013-05-19 04:40:00,43.5,42.5,29.80,West,274,0.0,0.0,96,0.00,SCT,,0.00,WeatherDisplay:10.37,2013-05-19 03:40:00,
2013-05-19 04:50:00,43.5,42.5,29.80,West,274,0.0,0.0,96,0.00,SCT,,0.00,WeatherDisplay:10.37,2013-05-19 03:50:00,
2013-05-19 05:00:00,43.5,42.5,29.81,West,274,0.0,0.0,96,0.00,SCT,,0.00,WeatherDisplay:10.37,2013-05-19 04:00:00,
2013-05-19 05:10:00,43.5,42.5,29.83,West,274,0.0,0.0,96,0.00,SCT,,0.00,WeatherDisplay:10.37,2013-05-19 04:10:00,
2013-05-19 05:20:00,43.5,42.5,29.83,West,274,0.0,5.0,96,0.00,SCT,,0.00,WeatherDisplay:10.37,2013-05-19 04:20:00,
2013-05-19 05:30:00,43.7,42.6,29.83,West,271,0.0,0.0,96,0.00,SCT,,0.00,WeatherDisplay:10.37,2013-05-19 04:30:00,
2013-05-19 05:40:00,43.8,42.7,29.83,West,271,0.0,0.0,96,0.00,SCT,,0.00,WeatherDisplay:10.37,2013-05-19 04:40:00,
2013-05-19 05:50:00,44.0,42.9,29.83,West,271,0.0,0.0,96,0.00,SCT,,0.00,WeatherDisplay:10.37,2013-05-19 04:50:00,
2013-05-19 06:00:00,44.2,43.2,29.83,West,271,0.0,0.0,96,0.00,SCT,,0.00,WeatherDisplay:10.37,2013-05-19 05:00:00,
2013-05-19 06:10:00,44.1,43.0,29.83,West,271,0.0,0.0,96,0.00,SCT,,0.00,WeatherDisplay:10.37,2013-05-19 05:10:00,
2013-05-19 06:20:00,44.3,43.2,29.83,West,271,0.0,0.0,96,0.00,SCT,,0.00,WeatherDisplay:10.37,2013-05-19 05:20:00,
2013-05-19 06:30:00,45.3,44.5,29.83,West,268,0.0,0.0,97,0.00,SCT,,0.00,WeatherDisplay:10.37,2013-05-19 05:30:00,
2013-05-19 06:40:00,46.1,45.3,29.83,West,268,0.0,0.0,97,0.00,SCT,,0.00,WeatherDisplay:10.37,2013-05-19 05:40:00,
2013-05-19 06:50:00,46.6,45.8,29.85,West,268,0.0,0.0,97,0.00,SCT,,0.00,WeatherDisplay:10.37,2013-05-19 05:50:00,
2013-05-19 07:00:00,48.1,47.5,29.85,West,268,0.0,0.0,98,0.00,SCT,,0.00,WeatherDisplay:10.37,2013-05-19 06:00:00,
2013-05-19 07:10:00,50.5,50.0,29.85,West,268,0.0,0.0,98,0.00,SCT,,0.00,WeatherDisplay:10.37,2013-05-19 06:10:00,
2013-05-19 07:20:00,51.2,50.4,29.85,West,268,0.0,4.0,97,0.00,SCT,,0.00,WeatherDisplay:10.37,2013-05-19 06:20:00,
2013-05-19 07:30:00,54.5,54.0,29.85,West,269,0.0,4.0,98,0.00,SCT,,0.00,WeatherDisplay:10.37,2013-05-19 06:30:00,
2013-05-19 07:40:00,55.0,53.9,29.85,West,268,0.0,5.0,96,0.00,SCT,,0.00,WeatherDisplay:10.37,2013-05-19 06:40:00,
2013-05-19 07:50:00,53.2,51.5,29.85,West,268,0.0,0.0,94,0.00,SCT,,0.00,WeatherDisplay:10.37,2013-05-19 06:50:00,
2013-05-19 08:00:00,51.8,49.8,29.85,West,268,0.0,4.0,93,0.00,SCT,,0.00,WeatherDisplay:10.37,2013-05-19 07:00:00,
2013-05-19 08:10:00,52.3,50.7,29.85,NW,319,1.0,6.0,94,0.00,SCT,,0.00,WeatherDisplay:10.37,2013-05-19 07:10:00,
2013-05-19 08:20:00,53.1,51.4,29.85,NNW,328,0.0,6.0,94,0.00,SCT,,0.00,WeatherDisplay:10.37,2013-05-19 07:20:00,
2013-05-19 08:30:00,53.1,50.9,29.85,NW,318,0.0,7.0,92,0.00,SCT,,0.00,WeatherDisplay:10.37,2013-05-19 07:30:00,
2013-05-19 08:40:00,52.6,50.3,29.85,NW,317,0.0,6.0,92,0.00,SCT,,0.00,WeatherDisplay:10.37,2013-05-19 07:40:00,
2013-05-19 08:50:00,52.7,50.1,29.85,NW,316,0.0,6.0,91,0.00,SCT,,0.00,WeatherDisplay:10.37,2013-05-19 07:50:00,
2013-05-19 09:00:00,53.6,51.0,29.85,NW,315,3.0,7.0,91,0.00,SCT,,0.00,WeatherDisplay:10.37,2013-05-19 08:00:00,
2013-05-19 09:10:00,54.3,51.7,29.85,NW,320,0.0,7.0,91,0.00,SCT,,0.00,WeatherDisplay:10.37,2013-05-19 08:10:00,
2013-05-19 09:20:00,54.9,51.7,29.85,NW,321,0.0,6.0,89,0.00,SCT,,0.00,WeatherDisplay:10.37,2013-05-19 08:20:00,
2013-05-19 09:30:00,55.4,51.6,29.85,NW,321,0.0,4.0,87,0.00,SCT,,0.00,WeatherDisplay:10.37,2013-05-19 08:30:00,
2013-05-19 09:40:00,55.9,51.5,29.85,NW,322,0.0,6.0,85,0.00,SCT,,0.00,WeatherDisplay:10.37,2013-05-19 08:40:00,
2013-05-19 09:50:00,56.1,51.4,29.85,NNW,338,5.0,8.0,84,0.00,SCT,,0.00,WeatherDisplay:10.37,2013-05-19 08:50:00,
2013-05-19 10:00:00,56.5,51.4,29.85,NNW,328,1.0,9.0,83,0.00,SCT,,0.00,WeatherDisplay:10.37,2013-05-19 09:00:00,
2013-05-19 10:10:00,56.5,51.1,29.85,NNW,347,0.0,9.0,82,0.00,SCT,,0.00,WeatherDisplay:10.37,2013-05-19 09:10:00,
2013-05-19 10:20:00,56.7,51.2,29.85,North,10,0.0,8.0,82,0.00,SCT,,0.00,WeatherDisplay:10.37,2013-05-19 09:20:00,
2013-05-19 10:30:00,57.0,51.6,29.85,NNW,345,6.0,10.0,82,0.00,SCT,,0.00,WeatherDisplay:10.37,2013-05-19 09:30:00,
2013-05-19 10:40:00,57.8,52.0,29.85,North,349,5.0,10.0,81,0.00,SCT,,0.00,WeatherDisplay:10.37,2013-05-19 09:40:00,
2013-05-19 10:50:00,58.8,52.0,29.85,NNW,347,6.0,9.0,78,0.00,SCT,,0.00,WeatherDisplay:10.37,2013-05-19 09:50:00,
2013-05-19 11:00:00,59.4,51.8,29.85,NNW,347,6.0,9.0,76,0.00,SCT,,0.00,WeatherDisplay:10.37,2013-05-19 10:00:00,
2013-05-19 11:10:00,59.2,51.3,29.85,North,10,0.0,9.0,75,0.00,SCT,,0.00,WeatherDisplay:10.37,2013-05-19 10:10:00,
2013-05-19 11:20:00,59.4,51.1,29.85,NNE,13,1.0,9.0,74,0.00,SCT,,0.00,WeatherDisplay:10.37,2013-05-19 10:20:00,
2013-05-19 11:30:00,59.7,51.4,29.85,North,353,5.0,10.0,74,0.00,SCT,,0.00,WeatherDisplay:10.37,2013-05-19 10:30:00,
2013-05-19 11:40:00,59.8,51.5,29.85,NNW,332,2.0,7.0,74,0.00,SCT,,0.00,WeatherDisplay:10.37,2013-05-19 10:40:00,
2013-05-19 11:50:00,60.6,52.3,29.85,NNW,346,2.0,10.0,74,0.00,SCT,,0.00,WeatherDisplay:10.37,2013-05-19 10:50:00,
2013-05-19 12:00:00,60.0,51.4,29.87,NNW,348,1.0,9.0,73,0.00,SCT,,0.00,WeatherDisplay:10.37,2013-05-19 11:00:00,
2013-05-19 12:10:00,59.9,51.2,29.88,North,10,5.0,8.0,73,0.00,SCT,,0.00,WeatherDisplay:10.37,2013-05-19 11:10:00,
2013-05-19 12:20:00,59.9,51.2,29.88,North,349,5.0,9.0,73,0.00,SCT,,0.00,WeatherDisplay:10.37,2013-05-19 11:20:00,
2013-05-19 12:30:00,59.7,51.4,29.88,NNW,343,5.0,7.0,74,0.00,SCT,,0.00,WeatherDisplay:10.37,2013-05-19 11:30:00,
2013-05-19 12:40:00,60.1,51.4,29.88,NNE,24,1.0,8.0,73,0.00,SCT,,0.00,WeatherDisplay:10.37,2013-05-19 11:40:00,
2013-05-19 12:50:00,59.5,50.9,29.88,NNW,346,3.0,7.0,73,0.00,SCT,,0.00,WeatherDisplay:10.37,2013-05-19 11:50:00,
2013-05-19 13:00:00,59.1,50.8,29.88,NNW,337,0.0,7.0,74,0.00,SCT,,0.00,WeatherDisplay:10.37,2013-05-19 12:00:00,
2013-05-19 13:10:00,58.8,50.5,29.88,NNW,334,0.0,6.0,74,0.00,SCT,,0.00,WeatherDisplay:10.37,2013-05-19 12:10:00,
2013-05-19 13:20:00,58.6,50.4,29.88,NNW,335,0.0,7.0,74,0.00,SCT,,0.00,WeatherDisplay:10.37,2013-05-19 12:20:00,
2013-05-19 13:30:00,58.3,50.4,29.88,NNE,20,0.0,6.0,75,0.00,SCT,,0.00,WeatherDisplay:10.37,2013-05-19 12:30:00,
2013-05-19 13:40:00,58.1,50.2,29.88,NNE,17,0.0,6.0,75,0.00,SCT,,0.00,WeatherDisplay:10.37,2013-05-19 12:40:00,
2013-05-19 13:50:00,58.5,50.9,29.88,NNE,17,0.0,6.0,76,0.00,SCT,,0.00,WeatherDisplay:10.37,2013-05-19 12:50:00,
2013-05-19 14:00:00,59.3,51.8,29.88,NNE,17,0.0,5.0,76,0.00,SCT,,0.00,WeatherDisplay:10.37,2013-05-19 13:00:00,
2013-05-19 14:10:00,59.9,52.0,29.88,NNE,17,5.0,6.0,75,0.00,SCT,,0.00,WeatherDisplay:10.37,2013-05-19 13:10:00,
2013-05-19 14:20:00,61.0,53.0,29.88,NNE,17,0.0,7.0,75,0.00,SCT,,0.00,WeatherDisplay:10.37,2013-05-19 13:20:00,
2013-05-19 14:30:00,61.2,52.4,29.88,NNW,340,3.0,7.0,73,0.00,SCT,,0.00,WeatherDisplay:10.37,2013-05-19 13:30:00,
2013-05-19 14:40:00,61.4,52.7,29.88,NW,305,0.0,7.0,73,0.00,SCT,,0.00,WeatherDisplay:10.37,2013-05-19 13:40:00,
2013-05-19 14:50:00,62.0,53.2,29.88,NW,318,0.0,9.0,73,0.00,SCT,,0.00,WeatherDisplay:10.37,2013-05-19 13:50:00,
2013-05-19 15:00:00,61.9,52.8,29.88,NW,316,0.0,8.0,72,0.00,SCT,,0.00,WeatherDisplay:10.37,2013-05-19 14:00:00,
2013-05-19 15:10:00,61.7,52.6,29.88,NW,312,0.0,7.0,72,0.00,SCT,,0.00,WeatherDisplay:10.37,2013-05-19 14:10:00,
2013-05-19 15:20:00,62.2,53.5,29.88,NW,309,5.0,8.0,73,0.00,SCT,,0.00,WeatherDisplay:10.37,2013-05-19 14:20:00,
2013-05-19 15:30:00,63.3,54.1,29.87,WNW,296,5.0,9.0,72,0.00,SCT,,0.00,WeatherDisplay:10.37,2013-05-19 14:30:00,
2013-05-19 15:40:00,63.9,54.3,29.85,WSW,255,5.0,10.0,71,0.00,SCT,,0.00,WeatherDisplay:10.37,2013-05-19 14:40:00,
2013-05-19 15:50:00,64.0,54.4,29.85,West,270,6.0,8.0,71,0.00,SCT,,0.00,WeatherDisplay:10.37,2013-05-19 14:50:00,
2013-05-19 16:00:00,64.4,54.8,29.85,WNW,298,1.0,9.0,71,0.00,SCT,,0.00,WeatherDisplay:10.37,2013-05-19 15:00:00,
2013-05-19 16:10:00,64.8,55.1,29.85,West,278,1.0,10.0,71,0.00,SCT,,0.00,WeatherDisplay:10.37,2013-05-19 15:10:00,
2013-05-19 16:20:00,64.1,54.1,29.85,NW,310,1.0,9.0,70,0.00,SCT,,0.00,WeatherDisplay:10.37,2013-05-19 15:20:00,
2013-05-19 16:30:00,63.1,53.6,29.85,NW,326,0.0,10.0,71,0.00,SCT,,0.00,WeatherDisplay:10.37,2013-05-19 15:30:00,
2013-05-19 16:40:00,62.7,53.2,29.85,NNW,334,3.0,9.0,71,0.00,SCT,,0.00,WeatherDisplay:10.37,2013-05-19 15:40:00,
2013-05-19 16:50:00,62.6,53.1,29.85,NW,324,5.0,8.0,71,0.00,SCT,,0.00,WeatherDisplay:10.37,2013-05-19 15:50:00,
2013-05-19 17:00:00,62.4,52.9,29.85,NW,305,2.0,7.0,71,0.00,SCT,,0.00,WeatherDisplay:10.37,2013-05-19 16:00:00,
2013-05-19 17:10:00,62.4,52.9,29.85,NW,309,2.0,7.0,71,0.00,SCT,,0.00,WeatherDisplay:10.37,2013-05-19 16:10:00,
2013-05-19 17:20:00,62.2,52.7,29.85,NNW,346,1.0,10.0,71,0.00,SCT,,0.00,WeatherDisplay:10.37,2013-05-19 16:20:00,
2013-05-19 17:30:00,62.1,52.5,29.85,NW,324,0.0,9.0,71,0.00,SCT,,0.00,WeatherDisplay:10.37,2013-05-19 16:30:00,
2013-05-19 17:40:00,62.1,52.5,29.85,WNW,302,0.0,6.0,71,0.00,SCT,,0.00,WeatherDisplay:10.37,2013-05-19 16:40:00,
2013-05-19 17:50:00,61.9,52.4,29.85,NNW,330,2.0,9.0,71,0.00,SCT,,0.00,WeatherDisplay:10.37,2013-05-19 16:50:00,
2013-05-19 18:00:00,61.7,52.2,29.85,NNW,340,5.0,9.0,71,0.00,SCT,,0.00,WeatherDisplay:10.37,2013-05-19 17:00:00,
2013-05-19 18:10:00,61.7,52.6,29.85,NNW,334,3.0,7.0,72,0.00,SCT,,0.00,WeatherDisplay:10.37,2013-05-19 17:10:00,
2013-05-19 18:20:00,61.7,52.6,29.85,North,5,5.0,9.0,72,0.00,SCT,,0.00,WeatherDisplay:10.37,2013-05-19 17:20:00,
2013-05-19 18:30:00,61.5,52.8,29.85,NNW,345,0.0,6.0,73,0.00,SCT,,0.00,WeatherDisplay:10.37,2013-05-19 17:30:00,
2013-05-19 18:40:00,61.3,52.6,29.85,NNW,330,0.0,6.0,73,0.00,SCT,,0.00,WeatherDisplay:10.37,2013-05-19 17:40:00,
2013-05-19 18:50:00,61.0,52.3,29.85,NNW,330,0.0,5.0,73,0.00,SCT,,0.00,WeatherDisplay:10.37,2013-05-19 17:50:00,
2013-05-19 19:00:00,60.8,52.5,29.85,NNW,330,0.0,4.0,74,0.00,SCT,,0.00,WeatherDisplay:10.37,2013-05-19 18:00:00,
2013-05-19 19:10:00,60.4,52.1,29.85,NNW,330,0.0,5.0,74,0.00,SCT,,0.00,WeatherDisplay:10.37,2013-05-19 18:10:00,
2013-05-19 19:20:00,60.1,52.1,29.85,NNW,330,0.0,4.0,75,0.00,SCT,,0.00,WeatherDisplay:10.37,2013-05-19 18:20:00,
2013-05-19 19:30:00,59.9,52.3,29.85,NNW,330,0.0,0.0,76,0.00,SCT,,0.00,WeatherDisplay:10.37,2013-05-19 18:30:00,
2013-05-19 19:40:00,59.5,52.3,29.85,NNW,330,0.0,0.0,77,0.00,SCT,,0.00,WeatherDisplay:10.37,2013-05-19 18:40:00,
2013-05-19 19:50:00,59.5,53.0,29.85,NNW,330,0.0,0.0,79,0.00,SCT,,0.00,WeatherDisplay:10.37,2013-05-19 18:50:00,
2013-05-19 20:00:00,59.2,53.0,29.85,NNW,330,0.0,0.0,80,0.00,SCT,,0.00,WeatherDisplay:10.37,2013-05-19 19:00:00,
2013-05-19 20:10:00,58.8,53.0,29.85,NNW,330,0.0,0.0,81,0.00,SCT,,0.00,WeatherDisplay:10.37,2013-05-19 19:10:00,
2013-05-19 20:20:00,58.6,53.2,29.85,NNW,330,0.0,0.0,82,0.00,SCT,,0.00,WeatherDisplay:10.37,2013-05-19 19:20:00,
2013-05-19 20:30:00,58.6,53.2,29.85,NNW,330,0.0,0.0,82,0.00,SCT,,0.00,WeatherDisplay:10.37,2013-05-19 19:30:00,
2013-05-19 20:40:00,58.5,53.3,29.85,NNW,330,0.0,0.0,83,0.00,SCT,,0.00,WeatherDisplay:10.37,2013-05-19 19:40:00,
2013-05-19 20:50:00,58.3,53.5,29.88,NNW,330,0.0,0.0,84,0.00,SCT,,0.00,WeatherDisplay:10.37,2013-05-19 19:50:00,
2013-05-19 21:00:00,58.3,53.8,29.88,NNW,330,0.0,0.0,85,0.00,SCT,,0.00,WeatherDisplay:10.37,2013-05-19 20:00:00,
2013-05-19 21:10:00,57.9,53.4,29.88,NNW,330,0.0,0.0,85,0.00,SCT,,0.00,WeatherDisplay:10.37,2013-05-19 20:10:00,
2013-05-19 21:20:00,57.6,53.1,29.88,NNW,330,0.0,0.0,85,0.00,SCT,,0.00,WeatherDisplay:10.37,2013-05-19 20:20:00,
2013-05-19 21:30:00,57.6,53.1,29.88,NNW,330,0.0,0.0,85,0.00,SCT,,0.00,WeatherDisplay:10.37,2013-05-19 20:30:00,
2013-05-19 21:40:00,57.4,53.2,29.88,NNW,330,0.0,0.0,86,0.00,SCT,,0.00,WeatherDisplay:10.37,2013-05-19 20:40:00,
2013-05-19 21:50:00,57.0,52.9,29.88,NNW,330,0.0,0.0,86,0.00,SCT,,0.00,WeatherDisplay:10.37,2013-05-19 20:50:00,
2013-05-19 22:00:00,56.8,52.4,29.88,NNW,330,0.0,0.0,85,0.00,SCT,,0.00,WeatherDisplay:10.37,2013-05-19 21:00:00,
2013-05-19 22:10:00,56.7,52.5,29.88,NNW,330,0.0,0.0,86,0.00,SCT,,0.00,WeatherDisplay:10.37,2013-05-19 21:10:00,
2013-05-19 22:30:00,56.3,52.2,29.88,NNW,330,0.0,0.0,86,0.00,SCT,,0.00,WeatherDisplay:10.37,2013-05-19 21:30:00,
2013-05-19 22:50:00,55.9,52.1,29.88,NNW,330,0.0,0.0,87,0.00,SCT,,0.00,WeatherDisplay:10.37,2013-05-19 21:50:00,
2013-05-19 23:00:00,55.8,51.9,29.88,NNW,332,0.0,6.0,87,0.00,SCT,,0.00,WeatherDisplay:10.37,2013-05-19 22:00:00,
2013-05-19 23:10:00,55.2,51.1,29.88,NNW,333,2.0,7.0,86,0.00,SCT,,0.00,WeatherDisplay:10.37,2013-05-19 22:10:00,
2013-05-19 23:30:00,54.3,50.2,29.88,North,349,1.0,7.0,86,0.00,SCT,,0.00,WeatherDisplay:10.37,2013-05-19 22:30:00,
2013-05-19 23:40:00,54.0,49.9,29.88,North,358,2.0,9.0,86,0.00,SCT,,0.00,WeatherDisplay:10.37,2013-05-19 22:40:00,
2013-05-19 23:50:00,54.0,50.2,29.88,West,267,2.0,8.0,87,0.00,SCT,,0.00,WeatherDisplay:10.37,2013-05-19 22:50:00,